Valparaiso, IN

4:11 AM CDT on September 21, 2019 (GMT -0500)
Porter County Municipal

Weather History for KVPZ - August, 2019

Change the Weather History Date:

Sunday, August 18, 2019

  Actual Average Record
Temperature  
Mean Temperature 77 °F 71 °F  
Max Temperature 87 °F 80 °F 87 °F (2019)
Min Temperature 67 °F 61 °F 49 °F (2012)
Degree Days  
Heating Degree Days 0 0  
Month to date heating degree days 0 0  
Since 1 June heating degree days 25 45  
Since 1 July heating degree days 0 4  
Cooling Degree Days 12 6  
Month to date cooling degree days 167 118  
Year to date cooling degree days 763 569  
Since 1 June cooling degree days 723 522  
Growing Degree Days 27 (Base 50)    
Moisture  
Dew Point 68 °F    
Average Humidity 80    
Maximum Humidity 90    
Minimum Humidity 58    
Precipitation  
Precipitation 0.25 in 0.15 in 2.38 in (2015)
Month to date precipitation 1.48 2.46  
Year to date precipitation 23.89 23.69  
Sea Level Pressure  
Sea Level Pressure 29.87 in    
Wind  
Wind Speed 6 mph (SSW)    
Max Wind Speed 18 mph    
Max Gust Speed 26 mph    
Visibility 10 miles    
Events Rain , Thunderstorm    
T = Trace of Precipitation, MM = Missing Value Source: NWS Daily Summary

Daily Weather History Graph

Daily Weather History Graph

Search for Another Location

Airport or City:

Astronomy

Aug. 18, 2019 Rise Set
Actual Time 5:59 AM CDT 7:43 PM CDT
Civil Twilight 5:30 AM CDT 8:12 PM CDT
Nautical Twilight 4:54 AM CDT 8:48 PM CDT
Astronomical Twilight 4:15 AM CDT 9:26 PM CDT
Moon 9:35 PM CDT (8/18) 8:45 AM CDT (8/18)
Length of Visible Light 14h 42m
Length of Day
13h 43m
Waning Gibbous, 91% of the Moon is Illuminated
Aug 18
Waning Gibbous
Aug 23
Last Quarter
Aug 30
New
Sep 5
First Quarter
Sep 13
Full

Hourly Weather History & Observations

Time (CDT) Temp. Heat Index Dew Point Humidity Pressure Visibility Wind Dir Wind Speed Gust Speed Precip Events Conditions
12:56 AM 68.0 °F - 64.9 °F 90% 29.90 in 10.0 mi Calm Calm - N/A   Mostly Cloudy
1:56 AM 68.0 °F - 64.9 °F 90% 29.88 in 10.0 mi NE 3.5 mph - N/A   Scattered Clouds
2:56 AM 69.1 °F - 64.9 °F 87% 29.87 in 10.0 mi ESE 4.6 mph - N/A   Scattered Clouds
3:56 AM 68.0 °F - 64.9 °F 90% 29.86 in 10.0 mi East 3.5 mph - N/A   Mostly Cloudy
4:56 AM 68.0 °F - 64.0 °F 87% 29.85 in 10.0 mi East 4.6 mph - N/A   Scattered Clouds
5:49 AM 70.0 °F - 66.9 °F 90% 29.87 in 10.0 mi SSE 6.9 mph - N/A   Scattered Clouds
5:56 AM 71.1 °F - 66.9 °F 87% 29.85 in 10.0 mi SSE 5.8 mph - N/A   Scattered Clouds
6:56 AM 72.0 °F - 66.0 °F 81% 29.84 in 10.0 mi South 6.9 mph - N/A   Clear
7:29 AM 73.0 °F - 66.0 °F 79% 29.87 in 10.0 mi SSW 8.1 mph - N/A Thunderstorm Clear
7:38 AM 73.0 °F - 66.9 °F 81% 29.88 in 10.0 mi SSW 5.8 mph - N/A Thunderstorm Thunderstorm
7:53 AM 73.4 °F - 68.0 °F 83% 29.90 in - West 10.4 mph - N/A Thunderstorm Thunderstorm
7:56 AM 73.0 °F - 68.0 °F 84% 29.90 in 10.0 mi WNW 15.0 mph 24.2 mph 0.06 in Rain , Thunderstorm Heavy Thunderstorms and Rain
8:56 AM 71.1 °F - 68.0 °F 90% 29.85 in 10.0 mi SSE 6.9 mph - 0.18 in Rain , Thunderstorm Light Rain
9:06 AM 71.1 °F - 68.0 °F 90% 29.86 in 10.0 mi SSE 6.9 mph - 0.01 in Rain Light Rain
9:56 AM 73.0 °F - 69.1 °F 87% 29.89 in 10.0 mi Calm Calm - 0.01 in   Overcast
10:04 AM 73.0 °F - 69.1 °F 87% 29.91 in 10.0 mi Calm Calm - N/A   Overcast
10:18 AM 73.0 °F - 69.1 °F 87% 29.92 in 10.0 mi Calm Calm - N/A Thunderstorm Overcast
10:37 AM 73.0 °F - 69.1 °F 87% 29.93 in 10.0 mi NW 5.8 mph - N/A   Overcast
10:56 AM 73.9 °F - 69.1 °F 85% 29.91 in 10.0 mi NNW 4.6 mph - N/A   Mostly Cloudy
11:11 AM 73.9 °F - 69.1 °F 85% 29.90 in 10.0 mi NNE 3.5 mph - N/A   Partly Cloudy
11:56 AM 78.1 °F - 70.0 °F 76% 29.86 in 10.0 mi ESE 5.8 mph - N/A   Clear
12:56 PM 81.0 °F 85.2 °F 72.0 °F 74% 29.86 in 10.0 mi SSE 8.1 mph - N/A   Scattered Clouds
1:56 PM 84.0 °F 89.0 °F 71.1 °F 65% 29.81 in 10.0 mi South 15.0 mph - N/A   Clear
2:56 PM 84.9 °F 88.8 °F 69.1 °F 59% 29.81 in 10.0 mi South 12.7 mph - N/A   Clear
3:56 PM 86.0 °F 90.7 °F 70.0 °F 59% 29.83 in 10.0 mi West 9.2 mph - N/A   Clear
4:56 PM 84.0 °F 87.0 °F 68.0 °F 58% 29.84 in 10.0 mi West 10.4 mph - N/A   Clear
5:56 PM 82.9 °F 85.8 °F 68.0 °F 60% 29.82 in 10.0 mi WNW 9.2 mph - N/A   Clear
6:56 PM 82.9 °F 85.8 °F 68.0 °F 60% 29.83 in 10.0 mi West 6.9 mph - N/A   Clear
7:56 PM 78.1 °F - 68.0 °F 71% 29.86 in 10.0 mi West 6.9 mph - N/A   Clear
8:56 PM 73.9 °F - 66.9 °F 79% 29.89 in 10.0 mi West 4.6 mph - N/A   Clear
9:56 PM 73.9 °F - 66.9 °F 79% 29.92 in 10.0 mi West 3.5 mph - N/A   Clear
10:56 PM 71.1 °F - 66.9 °F 87% 29.93 in 10.0 mi Calm Calm - N/A   Clear
11:56 PM 70.0 °F - 66.0 °F 87% 29.94 in 10.0 mi Calm Calm - N/A   Clear